[[{"header":{"parameterUnit":"m.s-1","parameterCategory":1,"la1":30.2991,"la2":30.254,"lo1":-89.0895,"lo2":-89.0444,"dy":0.0017,"dx":0.0017,"nx":28,"ny":28,"refTime":"2025-07-19T09:00:00:Z","depth":0,"parameterNumber":2,"parameterNumberName":"U-component_of_WINDS"},"data":[0,0,0,0,0,0,0,0,0,0,0,0,0,0,0,0,0,0,0,0,0,0,0,0,0,0,0,0,0,0,0,0,0,0,0,0,0,0,0,0,0,0,0,0,0,0,0,0,0,0,0,0,0,0,0,0,0,0,1.5011,1.5012,0,1.515,1.5152,1.5153,1.5221,1.5221,1.5221,1.5221,1.5365,1.5369,1.5373,0,0,0,0,0,0,0,0,0,0,0,0,0,1.4804,1.4807,1.5011,1.5012,1.5014,1.515,1.5152,1.5154,1.5221,1.5221,1.5221,1.5221,1.5364,1.5368,1.5373,0,0,0,0,0,0,0,0,0,0,0,0,0,1.4913,1.4808,1.501,1.5064,1.507,1.515,1.5152,1.5154,1.5221,1.5221,1.5221,1.5221,1.5362,1.5368,1.5373,1.541,0,0,1.5391,1.5394,0,0,0,0,0,0,0,0,1.4907,1.4921,1.5054,1.506,1.5068,1.5168,1.5132,1.524,1.5221,1.5164,1.5221,1.5221,1.53,1.531,1.5337,1.5417,1.5423,1.5392,1.5395,1.5398,1.5399,0,0,0,0,0,0,0,1.4899,1.4915,1.5066,1.5056,1.5064,1.5081,1.5097,1.5153,1.523,1.5169,1.5174,1.5189,1.5303,1.5331,1.5341,1.5426,1.5392,1.5397,1.54,1.5403,1.5544,1.5544,0,0,0,0,0,0,1.4883,1.4908,1.5062,1.507,1.4985,1.5085,1.5103,1.5136,1.523,1.5244,1.5189,1.5192,1.5321,1.5334,1.5346,1.5396,1.5398,1.5403,1.5407,1.5544,1.5544,1.5544,0,0,0,0,0,0,1.4878,1.4896,1.5056,1.4991,1.5012,1.5089,1.5126,1.5139,1.5167,1.5245,1.526,1.5204,1.5322,1.5338,1.5394,1.5402,1.5406,1.5411,1.5543,1.5544,1.5544,1.5495,0,0,0,0,0,0,1.4872,1.4894,1.4908,1.4991,1.5016,1.5101,1.5126,1.5141,1.5176,1.5181,1.5263,1.5276,1.5323,1.5385,1.54,1.541,1.5416,1.5543,1.5543,1.5544,1.5497,1.5494,1.5492,0,0,0,0,0,1.4864,1.4889,1.4909,1.4927,1.5035,1.5101,1.5116,1.5169,1.5177,1.5192,1.5243,1.5273,1.5398,1.539,1.5407,1.5419,1.5543,1.5543,1.5544,1.5498,1.5495,1.5492,0,0,0,0,0,0,1.4806,1.4901,1.4924,1.4976,1.503,1.5112,1.5134,1.5164,1.5217,1.5219,1.5283,1.5301,1.5351,1.5391,1.538,1.546,1.5474,1.5478,1.5433,1.543,1.5428,1.5417,1.542,0,0,0,0,0,1.4799,1.4845,1.4925,1.4964,1.4989,1.5057,1.5087,1.5123,1.5182,1.5206,1.526,1.5316,1.5369,1.5402,1.5454,1.5503,1.5522,1.5519,1.5517,1.5515,1.5518,1.5547,1.5547,1.5546,1.5546,1.5546,0,0,1.4786,1.4843,1.4868,1.4953,1.4999,1.5045,1.5075,1.5123,1.5157,1.5213,1.5269,1.5311,1.5378,1.5431,1.5457,1.5466,1.5522,1.5515,1.5513,1.5517,1.5547,1.5547,1.5547,1.5547,1.5546,1.5546,0,0,1.4785,1.4833,1.487,1.4916,1.4985,1.503,1.5038,1.5117,1.5147,1.5204,1.5247,1.5289,1.5377,1.5423,1.5458,1.5474,1.5505,1.549,1.5478,1.5505,1.5505,1.5506,1.5512,1.5513,1.5492,1.5492,1.5492,0,1.476,1.483,1.4886,1.493,1.4967,1.5019,1.5057,1.5099,1.5182,1.5206,1.5214,1.5326,1.5375,1.5439,1.5443,1.547,1.5482,1.5481,1.5501,1.5502,1.5503,1.551,1.5512,1.549,1.549,1.549,1.5491,0,1.4796,1.4844,1.4866,1.4944,1.4983,1.5024,1.5086,1.5119,1.5152,1.5195,1.5253,1.5314,1.5379,1.5397,1.5429,1.5466,1.5469,1.5488,1.5503,1.55,1.5507,1.551,1.5487,1.5487,1.5488,1.5489,0,0,1.4762,1.4871,1.4878,1.4914,1.4995,1.5033,1.5077,1.5141,1.5168,1.5223,1.5262,1.5335,1.5353,1.5393,1.5431,1.5455,1.5464,1.5471,1.5474,1.5468,1.5509,1.5494,1.5496,1.5485,1.5486,1.5486,1.5504,0,1.4773,1.4853,1.4905,1.4965,1.501,1.506,1.5099,1.5152,1.5194,1.5239,1.5286,1.5337,1.5357,1.5381,1.5407,1.5458,1.5474,1.5457,1.5522,1.5524,1.5504,1.55,1.5485,1.5499,1.5507,1.5507,1.5508,0,1.4796,1.4849,1.4914,1.499,1.5011,1.5044,1.5107,1.5149,1.5211,1.524,1.5284,1.5322,1.5371,1.5381,1.545,1.5437,1.5467,1.5496,1.5497,1.5506,1.5516,1.5509,1.5504,1.5506,1.5513,1.5512,1.5512,0,1.4765,1.4854,1.4904,1.4934,1.5023,1.5045,1.5084,1.5145,1.518,1.5235,1.5259,1.5318,1.5351,1.5397,1.5451,1.5453,1.5514,1.5528,1.554,1.5538,1.5551,1.5549,1.5551,1.5569,1.5569,1.5569,1.5569,0,1.4771,1.4809,1.4891,1.4922,1.4966,1.5025,1.5067,1.5109,1.5164,1.5205,1.5251,1.5288,1.5357,1.5403,1.5445,1.5496,1.551,1.5535,1.5546,1.5531,1.5528,1.5552,1.5553,1.5569,1.5569,1.5569,1.5569,0,1.4745,1.4801,1.4859,1.4939,1.496,1.4989,1.5058,1.509,1.5134,1.5185,1.52,1.527,1.5326,1.5384,1.546,1.5489,1.5538,1.5553,1.5517,1.5523,1.5531,1.553,1.5549,1.5554,1.5567,1.5567,1.5567,0,1.4745,1.4775,1.4858,1.4889,1.4926,1.4974,1.501,1.5069,1.5105,1.5177,1.5201,1.526,1.5311,1.5399,1.5456,1.5515,1.5532,1.5534,1.5541,1.5525,1.5533,1.553,1.5534,1.5532,1.5532,1.5531,1.5531,0,1.474,1.4767,1.4816,1.4876,1.4918,1.4968,1.502,1.5042,1.5111,1.5149,1.5207,1.5246,1.5323,1.5382,1.5448,1.5488,1.5521,1.5528,1.5534,1.552,1.5498,1.551,1.5511,1.5528,1.5528,1.5528,1.5529,1.5529,1.4727,1.4757,1.482,1.4874,1.4919,1.4966,1.5001,1.5049,1.5098,1.5166,1.5198,1.5256,1.5317,1.5409,1.5448,1.5495,1.5504,1.5512,1.5515,1.5516,1.5512,1.549,1.5507,1.5507,1.5507,1.5507,1.5507,0,1.4725,1.4768,1.4817,1.4888,1.4931,1.4958,1.5017,1.5051,1.5101,1.5156,1.5205,1.5271,1.5328,1.5391,1.5452,1.5477,1.5494,1.5491,1.549,1.5499,1.55,1.5489,1.5476,1.5476,1.5476,1.5476,1.5476,1.5476,1.4729,1.478,1.4814,1.4888,1.4931,1.4988,1.5019,1.5063,1.5107,1.5179,1.5227,1.5267,1.5325,1.5391,1.5445,1.5462,1.5482,1.5475,1.5496,1.5496,1.5499,1.5501,1.5491,1.5479,1.5479,1.5491,1.5491,1.5491]},{"header":{"parameterUnit":"m.s-1","parameterCategory":1,"la1":30.2991,"la2":30.254,"lo1":-89.0895,"lo2":-89.0444,"dy":0.0017,"dx":0.0017,"nx":28,"ny":28,"refTime":"2025-07-19T09:00:00:Z","depth":0,"parameterNumber":3,"parameterNumberName":"V-component_of_WINDS"},"data":[0,0,0,0,0,0,0,0,0,0,0,0,0,0,0,0,0,0,0,0,0,0,0,0,0,0,0,0,0,0,0,0,0,0,0,0,0,0,0,0,0,0,0,0,0,0,0,0,0,0,0,0,0,0,0,0,0,0,4.537,4.537,0,4.5333,4.5332,4.5332,4.5311,4.531,4.531,4.531,4.5266,4.5265,4.5264,0,0,0,0,0,0,0,0,0,0,0,0,0,4.5419,4.5419,4.537,4.537,4.5369,4.5333,4.5332,4.5332,4.5311,4.531,4.531,4.531,4.5266,4.5265,4.5264,0,0,0,0,0,0,0,0,0,0,0,0,0,4.5391,4.5418,4.537,4.5355,4.5353,4.5333,4.5332,4.5332,4.5311,4.531,4.531,4.531,4.5267,4.5265,4.5263,4.5255,0,0,4.5258,4.5257,0,0,0,0,0,0,0,0,4.5393,4.539,4.5357,4.5356,4.5354,4.5326,4.5333,4.5306,4.5311,4.5326,4.531,4.531,4.5286,4.5282,4.5275,4.5252,4.5251,4.5258,4.5257,4.5256,4.5256,0,0,0,0,0,0,0,4.5395,4.5391,4.5355,4.5357,4.5355,4.5348,4.5344,4.5328,4.5307,4.5325,4.5323,4.532,4.5285,4.5277,4.5274,4.525,4.5258,4.5257,4.5256,4.5255,4.5218,4.5218,0,0,0,0,0,0,4.54,4.5393,4.5356,4.5354,4.5374,4.5347,4.5343,4.5335,4.5307,4.5303,4.532,4.5319,4.528,4.5276,4.5273,4.5261,4.5256,4.5255,4.5254,4.5218,4.5218,4.5218,0,0,0,0,0,0,4.5401,4.5397,4.5358,4.5373,4.5368,4.5346,4.5338,4.5334,4.5327,4.5303,4.5299,4.5316,4.528,4.5275,4.526,4.5259,4.5254,4.5252,4.5218,4.5218,4.5218,4.5237,0,0,0,0,0,0,4.5403,4.5398,4.5395,4.5373,4.5367,4.5347,4.5338,4.5334,4.5325,4.5323,4.5299,4.5294,4.5279,4.5262,4.5258,4.5256,4.5251,4.5218,4.5218,4.5218,4.5236,4.5237,4.5239,0,0,0,0,0,4.5405,4.54,4.5395,4.5391,4.5364,4.5347,4.5344,4.5328,4.5325,4.5321,4.5306,4.5295,4.526,4.5261,4.5256,4.5254,4.5218,4.5218,4.5218,4.5236,4.5237,4.5239,0,0,0,0,0,0,4.542,4.5397,4.5391,4.538,4.5366,4.5344,4.5339,4.533,4.5315,4.5314,4.5294,4.5289,4.5275,4.5263,4.5265,4.5244,4.5238,4.5237,4.5253,4.5254,4.5255,4.5258,4.525,0,0,0,0,0,4.5423,4.5414,4.5393,4.5385,4.5379,4.536,4.5353,4.5342,4.5326,4.5319,4.5303,4.5286,4.5272,4.5262,4.5247,4.5234,4.5228,4.523,4.5232,4.5233,4.5232,4.5225,4.5225,4.5219,4.5219,4.5219,0,0,4.5428,4.5414,4.5408,4.5388,4.5376,4.5365,4.5355,4.5344,4.5335,4.5317,4.5303,4.529,4.527,4.5256,4.5249,4.5245,4.5233,4.5233,4.5234,4.5232,4.5225,4.5225,4.5226,4.5219,4.5219,4.5219,0,0,4.5431,4.5419,4.5412,4.5401,4.5384,4.5371,4.537,4.5349,4.5341,4.5326,4.5313,4.5301,4.5276,4.5263,4.5252,4.5252,4.5241,4.5247,4.5253,4.5246,4.5247,4.5247,4.5247,4.5247,4.5246,4.5246,4.5247,0,4.5438,4.5423,4.5409,4.5399,4.539,4.5375,4.5367,4.5356,4.5334,4.5328,4.5324,4.5293,4.5279,4.5262,4.5262,4.5254,4.5251,4.5249,4.5248,4.5248,4.5248,4.5248,4.5248,4.5247,4.5247,4.5247,4.5247,0,4.5432,4.5422,4.5418,4.54,4.539,4.5381,4.5365,4.5357,4.5347,4.5335,4.532,4.5303,4.5284,4.528,4.5269,4.5261,4.5259,4.5252,4.5246,4.525,4.5249,4.5249,4.5249,4.5248,4.5248,4.5248,0,0,4.5443,4.5419,4.5417,4.5409,4.539,4.5381,4.537,4.5355,4.5348,4.5333,4.5324,4.5304,4.5298,4.5286,4.5274,4.5268,4.5269,4.5262,4.5261,4.5264,4.5259,4.5264,4.5264,4.5262,4.5262,4.5262,4.5261,0,4.5443,4.5427,4.5414,4.5402,4.5392,4.5378,4.5369,4.5356,4.5344,4.5333,4.532,4.5306,4.5299,4.5292,4.5286,4.527,4.5268,4.527,4.5252,4.5251,4.5257,4.5264,4.5269,4.5269,4.526,4.526,4.526,0,4.5441,4.5429,4.5416,4.5399,4.5394,4.5387,4.5372,4.5361,4.5345,4.5337,4.5326,4.5314,4.5302,4.5297,4.5279,4.5281,4.5273,4.5264,4.5264,4.5261,4.5256,4.5261,4.5268,4.5268,4.5259,4.5259,4.5259,0,4.545,4.5431,4.5421,4.5414,4.5394,4.5389,4.5379,4.5364,4.5355,4.5341,4.5335,4.5319,4.531,4.5298,4.5282,4.528,4.5265,4.5259,4.5257,4.5258,4.5254,4.5255,4.5261,4.525,4.525,4.525,4.525,0,4.5451,4.5444,4.5425,4.5419,4.541,4.5396,4.5387,4.5376,4.5362,4.5353,4.5339,4.533,4.531,4.5298,4.5285,4.5272,4.5268,4.5261,4.5257,4.5262,4.5263,4.5256,4.5255,4.525,4.525,4.525,4.525,0,4.546,4.5447,4.5436,4.5418,4.5413,4.5407,4.5391,4.5384,4.5373,4.5361,4.5357,4.5338,4.5324,4.5307,4.5286,4.5277,4.5266,4.5261,4.5272,4.527,4.5269,4.527,4.527,4.5269,4.526,4.526,4.526,0,4.5462,4.5456,4.5438,4.5432,4.5424,4.5413,4.5405,4.5391,4.5382,4.5364,4.5359,4.5344,4.5332,4.5309,4.5292,4.5276,4.5271,4.5272,4.5268,4.5273,4.5271,4.5271,4.527,4.5273,4.5273,4.5273,4.5274,0,4.5466,4.546,4.545,4.5438,4.5429,4.5418,4.5406,4.5402,4.5384,4.5375,4.5362,4.5352,4.5332,4.5317,4.53,4.5288,4.5278,4.5275,4.5274,4.5278,4.5285,4.5282,4.5275,4.5275,4.5275,4.5275,4.5275,4.5275,4.5471,4.5465,4.5452,4.5441,4.5432,4.5421,4.5414,4.5403,4.5392,4.5376,4.5367,4.5354,4.5338,4.5314,4.5303,4.5291,4.5287,4.5285,4.5285,4.5285,4.5286,4.5288,4.5288,4.5287,4.5287,4.5287,4.5287,0,4.5474,4.5465,4.5456,4.5441,4.5432,4.5426,4.5413,4.5405,4.5394,4.5381,4.537,4.5354,4.534,4.5323,4.5307,4.5301,4.5296,4.5297,4.5297,4.5295,4.529,4.5293,4.5302,4.5302,4.5302,4.5302,4.5302,4.5302,4.5475,4.5466,4.5459,4.5444,4.5435,4.5423,4.5416,4.5407,4.5396,4.538,4.5369,4.5359,4.5344,4.5328,4.5314,4.5309,4.5304,4.5307,4.53,4.5296,4.5295,4.5294,4.5296,4.5306,4.5306,4.5306,4.5306,4.5306]}]]